This is the latest recevied weather packets stored in our database for station/object VK4TOM-13. If no packets are shown the sender has not sent any weather packets the latest 10 day(s).
| Time | Temp. | Humidity | Pressure | Rain* | Wind** | Luminosity | Snow |
|---|---|---|---|---|---|---|---|
| 1777603231 | 31.11° C | 63% | 1019.4 hPa | 0 mm | - | - | - |
| 1777597677 | 28.33° C | 70% | 1020.9 hPa | 0 mm | - | - | - |
| 1777591735 | 25° C | 70% | 1022 hPa | 0 mm | - | - | - |
| 1777591554 | 25° C | 70% | 1022 hPa | 0 mm | - | - | - |
| 1777591132 | 24.44° C | 70% | 1022 hPa | 0 mm | - | - | - |
| 1777590530 | 24.44° C | 70% | 1022 hPa | 0 mm | - | - | - |
| 1777589930 | 23.89° C | 70% | 1022.3 hPa | 0 mm | - | - | - |
| 1777589328 | 23.33° C | 70% | 1022.2 hPa | 0 mm | - | - | - |
| 1777588727 | 23.33° C | 70% | 1022.4 hPa | 0 mm | - | - | - |
| 1777588126 | 22.78° C | 70% | 1022.3 hPa | 0 mm | - | - | - |
| 1777587525 | 22.22° C | 70% | 1022.2 hPa | 0 mm | - | - | - |
| 1777586924 | 21.67° C | 70% | 1022.1 hPa | 0 mm | - | - | - |
| 1777586323 | 21.11° C | 70% | 1022 hPa | 0 mm | - | - | - |
| 1777585722 | 20.56° C | 70% | 1021.9 hPa | 0 mm | - | - | - |
| 1777585524 | 20.56° C | 70% | 1021.9 hPa | 0 mm | - | - | - |
| 1777585292 | 20.56° C | 70% | 1021.8 hPa | 0 mm | - | - | - |
| 1777584691 | 20° C | 70% | 1021.8 hPa | 0 mm | - | - | - |
| 1777584090 | 20° C | 70% | 1021.7 hPa | 0 mm | - | - | - |
| 1777583489 | 20° C | 70% | 1021.6 hPa | 0 mm | - | - | - |
| 1777582888 | 20° C | 70% | 1021.5 hPa | 0 mm | - | - | - |
| 1777582287 | 20° C | 70% | 1021.4 hPa | 0 mm | - | - | - |
| 1777581685 | 20° C | 70% | 1021.1 hPa | 0 mm | - | - | - |
| 1777581085 | 20° C | 70% | 1021.1 hPa | 0 mm | - | - | - |
| 1777580864 | 20° C | 70% | 1021 hPa | 0 mm | - | - | - |
| 1777580589 | 20° C | 70% | 1020.9 hPa | 0 mm | - | - | - |
* Rain since midnight (hover to see other rain measurements)
** Current wind speed in m/s (hover to see current wind gust speed)